DAL434 KATL-KBNA

Flight info

Callsign DAL434
Flight time 0h 48m
Altitude 28000
Route PENCL2 PENCL JAGIR SWFFT2
Aircraft B738/M-SDE2E3FGHIRWXY/LB1

Departure

Time 2026-05-03 21:17
Airport Hartsfield Jackson Atlanta International Airport (KATL)

Arrival

Time 2026-05-03 22:06
Airport Nashville International Airport (KBNA)
Time Latitude Longitude Altitude Speed Heading
2026-05-03 20:21 33.63916 -84.43544 1019 ft 0 kts 269°
2026-05-03 20:39 33.63916 -84.43538 1019 ft 2 kts 269°
2026-05-03 20:39 33.63916 -84.43516 1018 ft 3 kts 269°
2026-05-03 20:40 33.63918 -84.43492 1018 ft 3 kts 258°
2026-05-03 20:40 33.63923 -84.43469 1018 ft 3 kts 244°
2026-05-03 20:40 33.63934 -84.43449 1017 ft 3 kts 225°
2026-05-03 20:40 33.63941 -84.43441 1017 ft 1 kts 221°
2026-05-03 20:41 33.63942 -84.43440 1017 ft 0 kts 221°
2026-05-03 20:45 33.63935 -84.43445 1017 ft 11 kts 214°
2026-05-03 20:45 33.63873 -84.43458 1017 ft 10 kts 180°
2026-05-03 20:45 33.63820 -84.43458 1016 ft 11 kts 174°
2026-05-03 20:46 33.63804 -84.43458 1016 ft 11 kts 184°
2026-05-03 20:46 33.63774 -84.43459 1015 ft 0 kts 180°
2026-05-03 20:50 33.63773 -84.43459 1015 ft 0 kts 180°
2026-05-03 20:51 33.63772 -84.43459 1015 ft 0 kts 180°
2026-05-03 20:51 33.63767 -84.43459 1015 ft 0 kts 180°
2026-05-03 20:53 33.63759 -84.43459 1015 ft 5 kts 178°
2026-05-03 20:53 33.63742 -84.43459 1015 ft 0 kts 180°
2026-05-03 20:55 33.63741 -84.43459 1015 ft 0 kts 181°
2026-05-03 20:56 33.63726 -84.43459 1014 ft 3 kts 181°
2026-05-03 20:56 33.63725 -84.43459 1014 ft 0 kts 181°
2026-05-03 20:59 33.63723 -84.43459 1014 ft 2 kts 181°
2026-05-03 21:00 33.63664 -84.43379 1012 ft 15 kts 91°
2026-05-03 21:00 33.63664 -84.43291 1011 ft 14 kts 89°
2026-05-03 21:00 33.63664 -84.43207 1012 ft 19 kts 89°
2026-05-03 21:00 33.63663 -84.43097 1012 ft 10 kts 90°
2026-05-03 21:01 33.63663 -84.43019 1010 ft 10 kts 90°
2026-05-03 21:01 33.63664 -84.42932 1009 ft 11 kts 90°
2026-05-03 21:01 33.63664 -84.42839 1009 ft 11 kts 90°
2026-05-03 21:01 33.63660 -84.42746 1011 ft 11 kts 96°
2026-05-03 21:02 33.63655 -84.42655 1012 ft 11 kts 90°
2026-05-03 21:02 33.63655 -84.42555 1011 ft 13 kts 90°
2026-05-03 21:02 33.63655 -84.42428 1009 ft 17 kts 89°
2026-05-03 21:02 33.63656 -84.42277 1009 ft 19 kts 92°
2026-05-03 21:03 33.63653 -84.42112 1007 ft 21 kts 88°
2026-05-03 21:03 33.63654 -84.41918 1000 ft 26 kts 90°
2026-05-03 21:03 33.63655 -84.41692 997 ft 27 kts 88°
2026-05-03 21:03 33.63655 -84.41540 997 ft 11 kts 91°
2026-05-03 21:04 33.63655 -84.41437 993 ft 14 kts 90°
2026-05-03 21:04 33.63654 -84.41316 992 ft 14 kts 90°
2026-05-03 21:04 33.63654 -84.41195 995 ft 15 kts 90°
2026-05-03 21:04 33.63654 -84.41078 993 ft 10 kts 89°
2026-05-03 21:05 33.63655 -84.41046 991 ft 0 kts 90°
2026-05-03 21:07 33.63655 -84.41045 991 ft 1 kts 90°
2026-05-03 21:07 33.63655 -84.41033 995 ft 3 kts 90°
2026-05-03 21:08 33.63655 -84.40998 993 ft 5 kts 90°
2026-05-03 21:08 33.63654 -84.40955 990 ft 0 kts 95°
2026-05-03 21:10 33.63654 -84.40952 990 ft 1 kts 98°
2026-05-03 21:10 33.63648 -84.40930 991 ft 4 kts 112°
2026-05-03 21:10 33.63625 -84.40909 993 ft 4 kts 165°
2026-05-03 21:11 33.63614 -84.40909 991 ft 0 kts 180°
2026-05-03 21:13 33.63585 -84.40909 990 ft 8 kts 180°
2026-05-03 21:13 33.63562 -84.40909 993 ft 0 kts 180°
2026-05-03 21:15 33.63542 -84.40909 996 ft 15 kts 181°
2026-05-03 21:16 33.63477 -84.40958 996 ft 11 kts 239°
2026-05-03 21:16 33.63470 -84.41028 992 ft 7 kts 275°
2026-05-03 21:16 33.63471 -84.41062 991 ft 0 kts 270°
2026-05-03 21:17 33.63471 -84.41065 991 ft 5 kts 270°
2026-05-03 21:17 33.63471 -84.41241 992 ft 63 kts 270°
2026-05-03 21:17 33.63470 -84.42224 1047 ft 167 kts 270°
2026-05-03 21:17 33.63452 -84.44312 2413 ft 190 kts 271°
2026-05-03 21:18 33.63454 -84.45900 3837 ft 196 kts 271°
2026-05-03 21:18 33.63459 -84.47591 4998 ft 209 kts 271°
2026-05-03 21:18 33.63465 -84.49433 5792 ft 238 kts 271°
2026-05-03 21:18 33.63543 -84.50835 6336 ft 256 kts 283°
2026-05-03 21:19 33.64392 -84.52689 7605 ft 262 kts 311°
2026-05-03 21:19 33.65697 -84.54244 8988 ft 266 kts 316°
2026-05-03 21:19 33.67073 -84.55763 10351 ft 271 kts 316°
2026-05-03 21:19 33.68468 -84.57321 11550 ft 276 kts 316°
2026-05-03 21:20 33.70137 -84.58503 12712 ft 287 kts 342°
2026-05-03 21:20 33.72171 -84.58685 13686 ft 298 kts 360°
2026-05-03 21:20 33.74245 -84.58507 14765 ft 305 kts
2026-05-03 21:20 33.76387 -84.58336 15869 ft 310 kts 360°
2026-05-03 21:21 33.78566 -84.58217 16971 ft 316 kts 358°
2026-05-03 21:21 33.80787 -84.58143 18066 ft 321 kts 357°
2026-05-03 21:21 33.83065 -84.58125 18821 ft 337 kts 356°
2026-05-03 21:21 33.85485 -84.58224 19192 ft 357 kts 346°
2026-05-03 21:22 33.87936 -84.59013 19665 ft 372 kts 341°
2026-05-03 21:22 33.90439 -84.59856 20361 ft 381 kts 341°
2026-05-03 21:22 33.93017 -84.60732 21180 ft 387 kts 341°
2026-05-03 21:22 33.95640 -84.61608 22067 ft 392 kts 341°
2026-05-03 21:23 33.98291 -84.62481 22923 ft 397 kts 341°
2026-05-03 21:23 34.00979 -84.63358 23742 ft 401 kts 341°
2026-05-03 21:23 34.03694 -84.64241 24404 ft 406 kts 341°
2026-05-03 21:23 34.06400 -84.65119 25060 ft 410 kts 341°
2026-05-03 21:24 34.09173 -84.66019 25702 ft 414 kts 341°
2026-05-03 21:24 34.11959 -84.66921 26346 ft 417 kts 341°
2026-05-03 21:24 34.14779 -84.67836 26945 ft 421 kts 341°
2026-05-03 21:24 34.17618 -84.68757 27537 ft 424 kts 341°
2026-05-03 21:25 34.20501 -84.69693 28000 ft 427 kts 341°
2026-05-03 21:25 34.23367 -84.70623 28132 ft 426 kts 341°
2026-05-03 21:25 34.29000 -84.72757 28136 ft 423 kts 337°
2026-05-03 21:26 34.34522 -84.75103 28125 ft 423 kts 336°
2026-05-03 21:26 34.40078 -84.77464 28122 ft 422 kts 337°
2026-05-03 21:27 34.45632 -84.79820 28122 ft 422 kts 337°
2026-05-03 21:27 34.51182 -84.82175 28118 ft 422 kts 336°
2026-05-03 21:28 34.56693 -84.84516 28124 ft 422 kts 336°
2026-05-03 21:28 34.62229 -84.86872 28139 ft 421 kts 336°
2026-05-03 21:29 34.67584 -84.89655 28137 ft 415 kts 325°
2026-05-03 21:29 34.72141 -84.93885 28136 ft 410 kts 316°
2026-05-03 21:30 34.76457 -84.98434 28138 ft 410 kts 316°
2026-05-03 21:30 34.80744 -85.02991 28141 ft 410 kts 316°
2026-05-03 21:31 34.84872 -85.07387 28138 ft 405 kts 315°
2026-05-03 21:31 34.89134 -85.11938 28133 ft 408 kts 315°
2026-05-03 21:32 34.93411 -85.16508 28131 ft 408 kts 315°
2026-05-03 21:32 34.97680 -85.21076 28128 ft 408 kts 315°
2026-05-03 21:33 35.01918 -85.25617 28128 ft 407 kts 315°
2026-05-03 21:33 35.04056 -85.27908 28009 ft 400 kts 315°
2026-05-03 21:33 35.06094 -85.30094 27630 ft 388 kts 315°
2026-05-03 21:34 35.08089 -85.32233 27358 ft 374 kts 315°
2026-05-03 21:34 35.10001 -85.34286 27221 ft 358 kts 315°
2026-05-03 21:34 35.11854 -85.36278 26845 ft 350 kts 315°
2026-05-03 21:34 35.13678 -85.38245 26111 ft 352 kts 315°
2026-05-03 21:35 35.15526 -85.40263 25217 ft 359 kts 314°
2026-05-03 21:35 35.17297 -85.42411 24565 ft 357 kts 311°
2026-05-03 21:35 35.19004 -85.44570 24202 ft 348 kts 311°
2026-05-03 21:35 35.20644 -85.46657 24133 ft 331 kts 311°
2026-05-03 21:36 35.22198 -85.48636 24137 ft 313 kts 310°
2026-05-03 21:36 35.23646 -85.50481 24135 ft 297 kts 310°
2026-05-03 21:36 35.25036 -85.52254 24138 ft 281 kts 310°
2026-05-03 21:36 35.26370 -85.53959 23900 ft 275 kts 310°
2026-05-03 21:37 35.27709 -85.55676 23272 ft 282 kts 310°
2026-05-03 21:37 35.29091 -85.57449 22478 ft 292 kts 310°
2026-05-03 21:37 35.30514 -85.59273 21665 ft 302 kts 311°
2026-05-03 21:37 35.31989 -85.61161 20852 ft 310 kts 311°
2026-05-03 21:38 35.33493 -85.63086 20074 ft 316 kts 311°
2026-05-03 21:38 35.35028 -85.65049 19307 ft 321 kts 312°
2026-05-03 21:38 35.36585 -85.67042 18557 ft 325 kts 312°
2026-05-03 21:38 35.38133 -85.69023 17732 ft 327 kts 312°
2026-05-03 21:39 35.39712 -85.71046 16898 ft 329 kts 312°
2026-05-03 21:39 35.41297 -85.73079 16081 ft 330 kts 313°
2026-05-03 21:39 35.42888 -85.75121 15285 ft 330 kts 313°
2026-05-03 21:39 35.44485 -85.77172 14540 ft 329 kts 313°
2026-05-03 21:40 35.46039 -85.79169 13947 ft 325 kts 313°
2026-05-03 21:40 35.47588 -85.81160 13282 ft 320 kts 313°
2026-05-03 21:40 35.49113 -85.83122 12630 ft 315 kts 313°
2026-05-03 21:40 35.50616 -85.85059 12150 ft 308 kts 313°
2026-05-03 21:41 35.52055 -85.86911 11994 ft 290 kts 313°
2026-05-03 21:41 35.53393 -85.88637 11988 ft 269 kts 313°
2026-05-03 21:41 35.54639 -85.90244 11989 ft 251 kts 313°
2026-05-03 21:41 35.55792 -85.91762 11987 ft 234 kts 313°
2026-05-03 21:42 35.56861 -85.93185 11979 ft 219 kts 312°
2026-05-03 21:42 35.57863 -85.94524 11974 ft 205 kts 312°
2026-05-03 21:42 35.58804 -85.95783 11974 ft 196 kts 312°
2026-05-03 21:42 35.59709 -85.96993 11984 ft 194 kts 312°
2026-05-03 21:43 35.60620 -85.98214 11991 ft 194 kts 312°
2026-05-03 21:43 35.61524 -85.99447 11990 ft 194 kts 309°
2026-05-03 21:43 35.62374 -86.00739 11896 ft 194 kts 309°
2026-05-03 21:43 35.63234 -86.02052 11499 ft 201 kts 309°
2026-05-03 21:44 35.64127 -86.03428 11044 ft 211 kts 309°
2026-05-03 21:44 35.65043 -86.04854 10601 ft 219 kts 309°
2026-05-03 21:44 35.65999 -86.06347 10193 ft 225 kts 309°
2026-05-03 21:44 35.66956 -86.07847 10024 ft 218 kts 308°
2026-05-03 21:45 35.67864 -86.09272 9995 ft 205 kts 309°
2026-05-03 21:45 35.68719 -86.10613 9997 ft 193 kts 309°
2026-05-03 21:45 35.69545 -86.11909 10029 ft 198 kts 309°
2026-05-03 21:45 35.70478 -86.13369 10051 ft 237 kts 308°
2026-05-03 21:46 35.71543 -86.15042 10015 ft 250 kts 308°
2026-05-03 21:46 35.72608 -86.16719 10001 ft 253 kts 308°
2026-05-03 21:46 35.73693 -86.18430 10009 ft 254 kts 308°
2026-05-03 21:46 35.74782 -86.20145 10003 ft 254 kts 308°
2026-05-03 21:47 35.75873 -86.21859 9993 ft 254 kts 308°
2026-05-03 21:47 35.76961 -86.23571 9985 ft 254 kts 308°
2026-05-03 21:47 35.78047 -86.25286 9989 ft 254 kts 308°
2026-05-03 21:47 35.79136 -86.27004 9985 ft 254 kts 308°
2026-05-03 21:48 35.80223 -86.28721 9973 ft 254 kts 308°
2026-05-03 21:48 35.81310 -86.30439 9969 ft 254 kts 308°
2026-05-03 21:48 35.82385 -86.32137 9973 ft 254 kts 309°
2026-05-03 21:48 35.83474 -86.33858 9969 ft 254 kts 308°
2026-05-03 21:49 35.84563 -86.35582 9982 ft 254 kts 308°
2026-05-03 21:49 35.85650 -86.37303 9972 ft 254 kts 308°
2026-05-03 21:49 35.86736 -86.39023 9975 ft 254 kts 308°
2026-05-03 21:49 35.87822 -86.40744 9969 ft 254 kts 308°
2026-05-03 21:50 35.88897 -86.42448 9952 ft 244 kts 308°
2026-05-03 21:50 35.89908 -86.44053 9879 ft 230 kts 308°
2026-05-03 21:50 35.90868 -86.45576 9751 ft 220 kts 309°
2026-05-03 21:50 35.91785 -86.47030 9571 ft 213 kts 308°
2026-05-03 21:51 35.92683 -86.48456 9434 ft 208 kts 308°
2026-05-03 21:51 35.93567 -86.49864 9198 ft 205 kts 308°
2026-05-03 21:51 35.94436 -86.51293 9060 ft 221 kts 307°
2026-05-03 21:51 35.95407 -86.52914 9026 ft 243 kts 307°
2026-05-03 21:52 35.96424 -86.54621 9019 ft 248 kts 307°
2026-05-03 21:52 35.97451 -86.56348 9019 ft 250 kts 306°
2026-05-03 21:52 35.98478 -86.58077 9018 ft 250 kts 306°
2026-05-03 21:52 35.99559 -86.59719 9013 ft 250 kts 319°
2026-05-03 21:53 36.01146 -86.60540 9018 ft 252 kts 354°
2026-05-03 21:53 36.02868 -86.60102 9020 ft 257 kts 19°
2026-05-03 21:53 36.04516 -86.59200 9020 ft 260 kts 21°
2026-05-03 21:53 36.06181 -86.58311 9011 ft 259 kts 19°
2026-05-03 21:54 36.07862 -86.57497 9016 ft 259 kts 17°
2026-05-03 21:54 36.09554 -86.56742 9016 ft 259 kts 16°
2026-05-03 21:54 36.11267 -86.56052 9010 ft 259 kts 14°
2026-05-03 21:54 36.12968 -86.55404 9011 ft 258 kts 14°
2026-05-03 21:55 36.14673 -86.54767 8980 ft 249 kts 13°
2026-05-03 21:55 36.16286 -86.54169 8895 ft 235 kts 13°
2026-05-03 21:55 36.17821 -86.53603 8763 ft 226 kts 13°
2026-05-03 21:55 36.19306 -86.53057 8595 ft 219 kts 12°
2026-05-03 21:56 36.20758 -86.52526 8404 ft 215 kts 12°
2026-05-03 21:56 36.22183 -86.52008 8176 ft 212 kts 12°
2026-05-03 21:56 36.23572 -86.51501 7947 ft 210 kts 12°
2026-05-03 21:56 36.24970 -86.50989 7714 ft 208 kts 12°
2026-05-03 21:57 36.26357 -86.50482 7460 ft 207 kts 12°
2026-05-03 21:57 36.27743 -86.49977 7229 ft 207 kts 12°
2026-05-03 21:57 36.29126 -86.49471 6982 ft 207 kts 12°
2026-05-03 21:57 36.30506 -86.48970 6727 ft 206 kts 12°
2026-05-03 21:58 36.31886 -86.48466 6473 ft 206 kts 11°
2026-05-03 21:58 36.33260 -86.47962 6207 ft 206 kts 12°
2026-05-03 21:58 36.34643 -86.47458 5849 ft 211 kts 13°
2026-05-03 21:58 36.36109 -86.46926 5207 ft 228 kts 13°
2026-05-03 21:59 36.37736 -86.46660 4482 ft 243 kts 353°
2026-05-03 21:59 36.39316 -86.47298 4080 ft 236 kts 321°
2026-05-03 21:59 36.40263 -86.48809 4001 ft 219 kts 287°
2026-05-03 21:59 36.40341 -86.50601 3976 ft 201 kts 253°
2026-05-03 22:00 36.39703 -86.51861 3985 ft 186 kts 221°
2026-05-03 22:00 36.38681 -86.52769 4005 ft 175 kts 213°
2026-05-03 22:00 36.37663 -86.53536 4014 ft 164 kts 212°
2026-05-03 22:00 36.36690 -86.54257 3985 ft 167 kts 212°
2026-05-03 22:01 36.35670 -86.55025 4002 ft 169 kts 212°
2026-05-03 22:01 36.34701 -86.55759 4050 ft 174 kts 213°
2026-05-03 22:01 36.33585 -86.56616 4033 ft 201 kts 213°
2026-05-03 22:01 36.32767 -86.57247 4016 ft 208 kts 213°
2026-05-03 22:02 36.31114 -86.58518 3985 ft 213 kts 212°
2026-05-03 22:02 36.29786 -86.59319 4031 ft 207 kts 202°
2026-05-03 22:02 36.28484 -86.59881 3912 ft 190 kts 200°
2026-05-03 22:02 36.27668 -86.60208 3850 ft 182 kts 200°
2026-05-03 22:03 36.26489 -86.60672 3698 ft 174 kts 200°
2026-05-03 22:03 36.25360 -86.61115 3563 ft 165 kts 200°
2026-05-03 22:03 36.24282 -86.61538 3367 ft 160 kts 200°
2026-05-03 22:03 36.23243 -86.61957 3206 ft 153 kts 201°
2026-05-03 22:04 36.22242 -86.62362 3039 ft 151 kts 201°
2026-05-03 22:04 36.21187 -86.62791 3014 ft 168 kts 200°
2026-05-03 22:04 36.20015 -86.63242 2440 ft 186 kts 198°
2026-05-03 22:04 36.18759 -86.63739 1731 ft 190 kts 202°
2026-05-03 22:05 36.17591 -86.64185 1441 ft 166 kts 199°
2026-05-03 22:05 36.16545 -86.64615 1211 ft 149 kts 208°
2026-05-03 22:05 36.15604 -86.65064 1061 ft 141 kts 198°
2026-05-03 22:05 36.14706 -86.65376 872 ft 127 kts 199°
2026-05-03 22:06 36.13867 -86.65736 689 ft 126 kts 199°
2026-05-03 22:06 36.13086 -86.66039 561 ft 110 kts 201°
2026-05-03 22:06 36.12604 -86.66241 571 ft 43 kts 198°
2026-05-03 22:06 36.12360 -86.66338 572 ft 34 kts 202°
2026-05-03 22:07 36.12236 -86.66386 576 ft 8 kts 197°
2026-05-03 22:07 36.12052 -86.66460 577 ft 42 kts 198°
2026-05-03 22:07 36.11867 -86.66534 583 ft 22 kts 207°
2026-05-03 22:07 36.11875 -86.66654 583 ft 16 kts 339°
2026-05-03 22:08 36.12011 -86.66615 582 ft 24 kts 17°
2026-05-03 22:08 36.12160 -86.66553 575 ft 14 kts 17°
2026-05-03 22:08 36.12263 -86.66538 576 ft 15 kts 325°
2026-05-03 22:08 36.12285 -86.66571 570 ft 0 kts 293°
2026-05-03 22:09 36.12296 -86.66604 572 ft 21 kts 289°
2026-05-03 22:09 36.12353 -86.66814 577 ft 26 kts 295°
2026-05-03 22:09 36.12439 -86.66941 577 ft 15 kts 330°
2026-05-03 22:10 36.12638 -86.66913 577 ft 17 kts 311°
2026-05-03 22:10 36.12687 -86.66967 572 ft 0 kts 352°
2026-05-03 22:10 36.12692 -86.66967 572 ft 2 kts
2026-05-03 22:10 36.12728 -86.66948 579 ft 9 kts 31°
2026-05-03 22:11 36.12746 -86.66935 572 ft 4 kts 29°
2026-05-03 22:11 36.12750 -86.66932 574 ft 0 kts 30°